#timestamp,LO_Frequency,Hit,StdDev 
1514484015.7,286047000.8,N
1514484035.6,286047002.7,N
1514484055.4,286046999.7,N
1514484075.2,286047003.8,N
1514484095.1,286047004.7,N
1514484096.0,286047004.7,N
1514484115.8,286047005.8,N
1514484135.6,286047003.1,N
1514484155.4,286047003.2,N
1514484175.3,286047005.5,N
1514484195.1,286047004.8,N
1514484215.8,286047003.4,N
1514484235.7,286046999.8,N
1514484255.5,286047004.1,N
1514484275.3,286047001.9,N
1514484295.2,286047000.1,N
1514484315.9,286046999.8,N
1514484335.7,286046998.5,N
1514484355.6,286046998.8,N
1514484375.4,286046994.9,N
1514484395.2,286046998.3,N
1514484415.1,286047001.4,N
1514484416.0,286047001.4,N
1514484435.8,286047000.0,N
1514484455.6,286047001.1,N
1514484475.4,286046995.6,N
1514484495.3,286046997.8,N
1514484515.1,286047000.4,N
1514484535.8,286047004.3,N
1514484555.7,286047001.9,N
1514484575.5,286047002.4,N
1514484595.3,286047004.3,N
1514484615.2,286047006.8,N
1514484635.9,286047010.8,Y
1514484655.7,286047006.5,P
1514484675.6,286047004.8,N
1514484695.4,286047007.8,P
1514484715.2,286047010.1,Y
1514484735.1,286047003.2,P
1514484736.0,286047003.2,P
1514484755.8,286047007.0,P
1514484775.6,286047008.5,Y
1514484795.5,286047003.0,P
1514484815.3,286047005.0,P
1514484835.1,286047007.3,P
1514484855.9,286047006.0,Y
1514484875.7,286046998.9,P
1514484895.5,286046997.5,N
1514484915.4,286046996.7,N
1514484935.2,286046997.2,N
1514484955.0,286047000.0,N
1514484955.9,286047000.0,N
1514484975.8,286046998.1,N
1514484995.6,286046998.7,N
1514485015.4,286046999.1,N
1514485035.3,286046998.9,N
1514485055.1,286047000.7,N
1514485056.0,286047000.7,N
1514485075.8,286046996.6,N
1514485095.7,286046996.1,N
1514485115.5,286046993.8,N
1514485135.3,286046995.4,N
1514485155.1,286046995.4,N
1514485175.9,286046998.0,N
1514485195.7,286046999.2,N
1514485215.5,286047000.7,N
1514485235.4,286046998.5,N
1514485255.2,286046997.8,N
1514485275.0,286046999.2,N
1514485275.9,286046999.2,N
1514485295.8,286046998.4,N
1514485315.6,286047002.8,N
1514485335.4,286047000.1,N
1514485355.3,286047001.4,N
1514485375.1,286047000.6,N
1514485376.0,286047000.6,N
1514485395.8,286047000.6,N
1514485415.6,286047004.3,N
1514485435.5,286047001.3,N
1514485455.3,286047005.2,N
1514485475.1,286047008.5,Y
1514485495.9,286047009.3,P
1514485515.7,286047012.1,N
1514485535.5,286047008.5,N
1514485555.4,286047004.8,N
1514485575.2,286047008.8,N
1514485595.0,286047010.8,N
1514485595.9,286047010.8,N
1514485615.8,286047010.5,N
1514485635.6,286047009.3,N
1514485655.4,286047012.4,Y
1514485675.3,286047002.9,P
1514485695.1,286047011.1,P
1514485696.0,286047011.1,P
1514485715.8,286047015.5,Y
1514485735.7,286047006.0,P
1514485755.5,286047007.4,P
1514485775.3,286047011.8,P
1514485795.2,286047007.9,Y
1514485815.9,286047001.8,P
1514485835.7,286047001.4,N
1514485855.6,286047004.4,N
1514485875.4,286046996.6,N
1514485895.2,286046993.6,N
1514485915.1,286046991.3,N
1514485916.0,286046991.3,N
1514485935.8,286046994.4,N
1514485955.6,286047002.6,N
1514485975.5,286047004.0,N
1514485995.3,286047008.1,N
1514486015.1,286047010.0,N
1514486035.8,286047008.1,N
1514486055.7,286047010.3,N
1514486075.5,286047005.1,N
1514486095.3,286047007.4,N
1514486115.2,286047010.7,N
1514486135.9,286047013.7,N
1514486155.7,286047014.9,N
1514486175.6,286047017.1,N
1514486195.4,286047016.6,N
1514486215.2,286047018.6,N
1514486235.1,286047020.9,N
1514486236.0,286047020.9,N
1514486255.8,286047025.2,N
1514486275.6,286047020.8,N
1514486295.5,286047021.8,N
1514486315.3,286047017.6,N
1514486335.1,286047017.1,N
1514486355.8,286047018.1,N
1514486375.7,286047022.0,N
1514486395.5,286047020.9,N
1514486415.3,286047022.8,N
1514486435.2,286047025.3,N
1514486455.9,286047030.9,Y
1514486475.7,286047016.9,P
1514486495.6,286047017.4,P
1514486515.4,286047019.0,P
1514486535.2,286047023.3,Y
1514486555.1,286047008.7,P
1514486556.0,286047008.7,N
1514486575.8,286047006.8,N
1514486595.6,286047007.5,N
1514486615.5,286047002.5,N
1514486635.3,286047000.0,N
1514486655.1,286047001.6,N
1514486675.9,286047003.5,N
1514486695.7,286047005.3,N
1514486715.5,286047003.8,N
1514486735.4,286047003.8,N
1514486755.2,286047001.4,N
1514486775.0,286047003.3,N
1514486775.9,286047003.3,N
1514486795.8,286047005.3,N
1514486815.6,286047004.6,N
1514486835.4,286047008.0,N
1514486855.2,286047004.4,N
1514486875.1,286047002.8,N
1514486876.0,286047002.8,N
1514486895.8,286047001.0,N
1514486915.6,286046999.0,N
1514486935.5,286046996.9,N
1514486955.3,286046998.4,N
1514486975.1,286046999.4,N
1514486995.9,286046995.2,N
1514487015.7,286046993.0,N
1514487035.5,286046988.5,N
1514487055.4,286046988.2,N
1514487075.4,286046983.8,N
1514487095.3,286046982.9,N
1514487115.1,286046981.3,N
1514487116.0,286046981.3,N
1514487135.8,286046975.8,Y
1514487155.7,286046977.8,P
1514487175.5,286046977.4,N
1514487195.3,286046978.1,N
1514487215.2,286046977.0,N
1514487235.9,286046970.9,Y
1514487255.7,286046987.1,P
1514487275.6,286046985.4,P
1514487295.4,286046986.1,P
1514487315.2,286046986.7,Y
1514487335.1,286047002.0,P
1514487336.0,286047002.0,N
1514487355.8,286047002.4,N
1514487375.6,286047001.7,N
1514487395.5,286046996.7,N
1514487415.3,286046994.0,N
1514487435.1,286046990.2,N
1514487455.9,286046987.1,N
1514487475.7,286046987.3,N
1514487495.5,286046987.3,N
1514487515.4,286046982.6,N
1514487535.2,286046985.2,N
1514487555.0,286046986.7,N
1514487555.9,286046986.7,N
1514487575.7,286046982.5,N
1514487595.6,286046984.3,N
